This is the latest recevied weather packets stored in our database for station/object M0JUI-1. If no packets are shown the sender has not sent any weather packets the latest 10 day(s).
| Time | Temp. | Humidity | Pressure | Rain* | Wind** | Luminosity | Snow |
|---|---|---|---|---|---|---|---|
| 1777703187 | 8.33° C | 99% | 1017.8 hPa | 0 mm | - | 69 W/m² | - |
| 1777702886 | 8.33° C | 99% | 1017.8 hPa | 0 mm | - | 74 W/m² | - |
| 1777702587 | 8.33° C | 99% | 1017.7 hPa | 0 mm | - | 72 W/m² | - |
| 1777702286 | 7.78° C | 99% | 1017.6 hPa | 0 mm | - | 76 W/m² | - |
| 1777701984 | 7.78° C | 99% | 1017.8 hPa | 0 mm | - | 80 W/m² | - |
| 1777701687 | 7.78° C | 99% | 1017.7 hPa | 0 mm | - | 76 W/m² | - |
| 1777701386 | 7.78° C | 99% | 1017.8 hPa | 0 mm | - | 69 W/m² | - |
| 1777701086 | 7.78° C | 99% | 1017.8 hPa | 0 mm | - | 65 W/m² | - |
| 1777700786 | 8.33° C | 99% | 1017.6 hPa | 0 mm | - | 58 W/m² | - |
| 1777700486 | 7.78° C | 99% | 1017.7 hPa | 0 mm | - | 53 W/m² | - |
| 1777700187 | 7.78° C | 99% | 1017.6 hPa | 0 mm | - | 45 W/m² | - |
| 1777699886 | 7.78° C | 99% | 1017.7 hPa | 0 mm | - | 44 W/m² | - |
| 1777699581 | 7.22° C | 99% | 1017.5 hPa | 0 mm | - | 41 W/m² | - |
| 1777699274 | 7.22° C | 99% | 1017.7 hPa | 0 mm | - | 34 W/m² | - |
| 1777698951 | 7.22° C | 99% | 1017.6 hPa | 0 mm | - | 30 W/m² | - |
| 1777698651 | 7.22° C | 99% | 1017.7 hPa | 0 mm | - | 26 W/m² | - |
| 1777698339 | 6.67° C | 99% | 1017.8 hPa | 0 mm | - | 22 W/m² | - |
| 1777698038 | 6.67° C | 99% | 1017.7 hPa | 0 mm | - | 17 W/m² | - |
| 1777697738 | 6.67° C | 99% | 1017.9 hPa | 0 mm | - | 13 W/m² | - |
| 1777697438 | 6.67° C | 99% | 1018 hPa | 0 mm | - | 8 W/m² | - |
| 1777697138 | 6.67° C | 99% | 1017.8 hPa | 0 mm | - | 5 W/m² | - |
| 1777696838 | 6.67° C | 99% | 1017.5 hPa | 0 mm | - | 3 W/m² | - |
| 1777696540 | 6.67° C | 99% | 1017.7 hPa | 0 mm | - | 2 W/m² | - |
| 1777696238 | 6.67° C | 99% | 1017.7 hPa | 0 mm | - | 0 W/m² | - |
| 1777695939 | 6.67° C | 99% | 1017.7 hPa | 0 mm | - | 0 W/m² | - |
* Rain latest hour (hover to see other rain measurements)
** Current wind speed in m/s (hover to see current wind gust speed)